Regional Weather Roundup
Issued by NWS

Home | Current Version | Previous Version | Text Only | Print | Product List | Glossary Off
Versions: 1 2 3 4 5 6 7 8 9 10 11 12 13 14 15 16 17 18 19 20 21 22 23 24 25 26 27 28 29 30 31 32 33 34 35 36 37 38 39 40 41 42 43 44 45 46 47 48 49 50

000
ASUS43 KTOP 240959
RWRKS

WEATHER ROUNDUP FOR KANSAS
NATIONAL WEATHER SERVICE GOODLAND KS
400 AM CST FRI NOV 24 2017

NOTE:  "FAIR" INDICATES FEW OR NO CLOUDS BELOW 12,000 FEET WITH NO
SIGNIFICANT WEATHER AND/OR OBSTRUCTIONS TO VISIBILITY.

KSZ001>006-013>018-027>032-041>047-241100-
NORTHWEST KANSAS

CITY           SKY/WX    TMP DP  RH WIND       PRES   REMARKS
GOODLAND       CLOUDY    49  34  56 W12       29.77F
HAYS           CLOUDY    47  38  71 W6        29.73F
HILL CITY      CLEAR     47  38  71 W9        29.73F
RUSSELL        CLEAR     47  40  76 SW15      29.71F
$$

KSZ061>065-074>080-084>089-241100-
SOUTHWEST KANSAS

CITY           SKY/WX    TMP DP  RH WIND       PRES   REMARKS
DODGE CITY     CLOUDY    50  35  56 SW13      29.79F
GARDEN CITY    CLOUDY    43  33  68 W6        29.78F
GREAT BEND     CLEAR     43  37  79 SW8       29.75F
LIBERAL        CLOUDY    40  34  79 SW6       29.81F
$$

KSZ066>073-081>083-090>101-241100-
SOUTHEAST KANSAS

CITY           SKY/WX    TMP DP  RH WIND       PRES   REMARKS
CHANUTE        CLEAR     48  32  53 S13       29.84F
COFFEYVILLE    CLOUDY    42  32  67 SE5       29.87F
HUTCHINSON     CLEAR     45  37  73 S7        29.77F
MEDICINE LODGE   N/A     47  36  65 SE8       29.79F
NEWTON         PTCLDY    53  35  50 S17       29.78F
PARSONS        CLEAR     47  33  58 S7        29.86F
WICHITA INTL   PTCLDY    46  37  71 S10       29.80F
WICHITA JABRA  CLOUDY    50  36  58 S12       29.80F
WICHITA MCCONL CLOUDY    48  34  59 SW12      29.80F
WINFIELD       CLOUDY    45  36  70 S8        29.83F
$$

KSZ007>012-019>026-033>040-048>060-102>105-241100-
NORTHEAST KANSAS

CITY           SKY/WX    TMP DP  RH WIND       PRES   REMARKS
CONCORDIA      PTCLDY    54  39  57 SW9       29.68F
EMPORIA        CLOUDY    46  33  60 S14       29.77F
LAWRENCE       CLEAR     45  35  68 SE8       29.78F
MANHATTAN      PTCLDY    52  37  56 SW6       29.73F
OLATHE IND     CLEAR     45  34  65 S8        29.80F
OLATHE EXE     CLEAR     47  33  58 S8        29.79F
SALINA         CLOUDY    48  38  68 S8        29.73F
TOPEKA BILLARD CLOUDY    51  35  54 S5        29.76F
TOPEKA FORBES  CLOUDY    51  35  54 S12       29.75F
$$




USA.gov is the U.S. government's official web portal to all federal, state and local government web resources and services.